Météo par heure à Dziadowizna

Ce jour, 17 Janvier, Dimanche

Heure Température Précipitation Vent Pression Humidité
00:00 -8°C° 0.6 mm 4 m/s 738 mmHg 94%
01:00 -8°C° 0.6 mm 4 m/s 737 mmHg 95%
02:00 -8°C° 0.5 mm 3 m/s 737 mmHg 95%
03:00 -8°C° 0.5 mm 3 m/s 737 mmHg 95%
04:00 -9°C° 0.5 mm 3 m/s 737 mmHg 95%
05:00 -9°C° 0.2 mm 2 m/s 738 mmHg 95%
06:00 -12°C° 0.2 mm 2 m/s 738 mmHg 96%
07:00 -12°C° 0.2 mm 1 m/s 738 mmHg 96%
08:00 -11°C° 0 mm 1 m/s 738 mmHg 94%
09:00 -11°C° 0 mm 1 m/s 739 mmHg 93%
10:00 -11°C° 0 mm 1 m/s 740 mmHg 91%
11:00 -10°C° 0 mm 1 m/s 740 mmHg 89%
12:00 -10°C° 0 mm 1 m/s 740 mmHg 87%
13:00 -9°C° 0 mm 1 m/s 740 mmHg 86%
14:00 -10°C° 0 mm 1 m/s 740 mmHg 88%
15:00 -11°C° 0 mm 1 m/s 741 mmHg 91%
16:00 -12°C° 0 mm 1 m/s 741 mmHg 94%
17:00 -13°C° 0 mm 1 m/s 741 mmHg 95%
18:00 -13°C° 0 mm 1 m/s 742 mmHg 96%
19:00 -14°C° 0 mm 1 m/s 742 mmHg 96%
20:00 -14°C° 0 mm 0 m/s 742 mmHg 97%
21:00 -15°C° 0 mm 0 m/s 743 mmHg 97%
22:00 -15°C° 0 mm 0 m/s 743 mmHg 97%
23:00 -15°C° 0 mm 1 m/s 743 mmHg 96%

Demain, 18 Janvier, Lundi

Heure Température Précipitation Vent Pression Humidité
00:00 -15°C° 0 mm 1 m/s 743 mmHg 94%
01:00 -15°C° 0 mm 1 m/s 743 mmHg 93%
02:00 -15°C° 0 mm 1 m/s 743 mmHg 93%
03:00 -16°C° 0 mm 1 m/s 743 mmHg 93%
04:00 -16°C° 0 mm 1 m/s 742 mmHg 93%
05:00 -16°C° 0 mm 1 m/s 743 mmHg 91%
06:00 -16°C° 0 mm 1 m/s 743 mmHg 90%
07:00 -15°C° 0 mm 1 m/s 743 mmHg 88%
08:00 -14°C° 0 mm 1 m/s 743 mmHg 85%
09:00 -12°C° 0 mm 0 m/s 743 mmHg 83%
10:00 -10°C° 0 mm 0 m/s 743 mmHg 81%
11:00 -9°C° 0 mm 1 m/s 743 mmHg 80%
12:00 -7°C° 0 mm 1 m/s 743 mmHg 78%
13:00 -6°C° 0 mm 1 m/s 743 mmHg 77%
14:00 -7°C° 0 mm 1 m/s 743 mmHg 80%
15:00 -8°C° 0 mm 1 m/s 742 mmHg 84%
16:00 -8°C° 0 mm 1 m/s 742 mmHg 87%
17:00 -8°C° 0 mm 1 m/s 742 mmHg 87%
18:00 -8°C° 0 mm 1 m/s 742 mmHg 87%
19:00 -9°C° 0 mm 2 m/s 743 mmHg 86%
20:00 -9°C° 0 mm 2 m/s 742 mmHg 88%
21:00 -8°C° 0 mm 2 m/s 742 mmHg 91%
22:00 -8°C° 0 mm 2 m/s 742 mmHg 93%
23:00 -8°C° 0.1 mm 3 m/s 742 mmHg 93%

Après-demain, 19 Janvier, Mardi

Heure Température Précipitation Vent Pression Humidité
00:00 -8°C° 0.1 mm 3 m/s 742 mmHg 94%
01:00 -7°C° 0.1 mm 3 m/s 742 mmHg 94%
02:00 -7°C° 0.2 mm 3 m/s 741 mmHg 94%
03:00 -6°C° 0.2 mm 3 m/s 741 mmHg 95%
04:00 -6°C° 0.2 mm 3 m/s 741 mmHg 95%
05:00 -5°C° 0.2 mm 3 m/s 741 mmHg 95%
06:00 -5°C° 0.2 mm 3 m/s 741 mmHg 95%
07:00 -5°C° 0.2 mm 3 m/s 741 mmHg 95%
08:00 -4°C° 0.1 mm 4 m/s 740 mmHg 95%
09:00 -3°C° 0.1 mm 4 m/s 740 mmHg 94%
10:00 -3°C° 0.1 mm 4 m/s 740 mmHg 94%
11:00 -2°C° 0 mm 4 m/s 740 mmHg 93%
12:00 -2°C° 0 mm 4 m/s 739 mmHg 92%
13:00 0°C° 0 mm 3 m/s 739 mmHg 91%
14:00 -1°C° 0.1 mm 3 m/s 739 mmHg 91%
15:00 -1°C° 0.1 mm 3 m/s 738 mmHg 92%
16:00 -1°C° 0.1 mm 3 m/s 738 mmHg 93%
17:00 -1°C° 0.3 mm 3 m/s 738 mmHg 93%
18:00 -1°C° 0.3 mm 3 m/s 737 mmHg 93%
19:00 -2°C° 0.3 mm 4 m/s 737 mmHg 93%
20:00 -3°C° 0.3 mm 4 m/s 737 mmHg 94%
21:00 -3°C° 0.3 mm 4 m/s 737 mmHg 94%
22:00 -3°C° 0.3 mm 4 m/s 736 mmHg 95%
23:00 -2°C° 0.6 mm 4 m/s 736 mmHg 95%

20 Janvier, Mercredi

Heure Température Précipitation Vent Pression Humidité
00:00 -1°C° 0.6 mm 4 m/s 736 mmHg 95%
01:00 -1°C° 0.6 mm 4 m/s 736 mmHg 95%
02:00 -1°C° 0.1 mm 4 m/s 736 mmHg 94%
03:00 -1°C° 0.1 mm 4 m/s 736 mmHg 93%
04:00 0°C° 0.1 mm 4 m/s 736 mmHg 92%
05:00 0°C° 0 mm 4 m/s 736 mmHg 91%
06:00 0°C° 0 mm 4 m/s 736 mmHg 90%
07:00 -1°C° 0 mm 4 m/s 737 mmHg 89%
08:00 0°C° 0 mm 4 m/s 737 mmHg 91%
09:00 +1°C° 0 mm 3 m/s 737 mmHg 93%
10:00 +1°C° 0 mm 3 m/s 737 mmHg 95%
11:00 +2°C° 0 mm 3 m/s 737 mmHg 95%
12:00 +2°C° 0 mm 3 m/s 737 mmHg 95%
13:00 +2°C° 0 mm 3 m/s 736 mmHg 95%
14:00 +2°C° 0 mm 3 m/s 736 mmHg 91%
15:00 +3°C° 0 mm 2 m/s 736 mmHg 87%
16:00 +2°C° 0 mm 2 m/s 736 mmHg 84%
17:00 +2°C° 0 mm 2 m/s 736 mmHg 82%
18:00 +1°C° 0 mm 2 m/s 736 mmHg 81%
19:00 +1°C° 0 mm 2 m/s 736 mmHg 80%
20:00 -1°C° 0 mm 2 m/s 736 mmHg 81%
21:00 -2°C° 0 mm 2 m/s 736 mmHg 82%
22:00 -2°C° 0 mm 2 m/s 735 mmHg 83%
23:00 -2°C° 0 mm 2 m/s 735 mmHg 84%

21 Janvier, Jeudi

Heure Température Précipitation Vent Pression Humidité
00:00 -2°C° 0 mm 2 m/s 735 mmHg 85%
01:00 -2°C° 0 mm 2 m/s 734 mmHg 87%
02:00 -2°C° 0 mm 2 m/s 734 mmHg 87%
03:00 -1°C° 0 mm 2 m/s 734 mmHg 86%
04:00 -1°C° 0 mm 2 m/s 733 mmHg 86%
05:00 -1°C° 0 mm 2 m/s 733 mmHg 87%
06:00 -1°C° 0 mm 2 m/s 732 mmHg 87%
07:00 -1°C° 0 mm 2 m/s 732 mmHg 87%
08:00 +1°C° 0 mm 2 m/s 732 mmHg 90%
09:00 +2°C° 0 mm 2 m/s 731 mmHg 93%
10:00 +3°C° 0 mm 2 m/s 731 mmHg 96%
11:00 +3°C° 0 mm 2 m/s 731 mmHg 97%
12:00 +3°C° 0 mm 2 m/s 730 mmHg 98%
13:00 +4°C° 0 mm 2 m/s 730 mmHg 98%
14:00 +3°C° 0 mm 3 m/s 730 mmHg 97%
15:00 +2°C° 0 mm 3 m/s 730 mmHg 95%
16:00 +2°C° 0 mm 3 m/s 731 mmHg 94%
17:00 +2°C° 0 mm 3 m/s 731 mmHg 93%
18:00 +2°C° 0 mm 3 m/s 732 mmHg 92%
19:00 +1°C° 0 mm 3 m/s 732 mmHg 91%
20:00 +2°C° 0 mm 3 m/s 732 mmHg 90%
21:00 +2°C° 0 mm 3 m/s 733 mmHg 90%
22:00 +2°C° 0 mm 3 m/s 733 mmHg 89%
23:00 +2°C° 0 mm 3 m/s 733 mmHg 89%

22 Janvier, Vendredi

Heure Température Précipitation Vent Pression Humidité
00:00 +3°C° 0 mm 2 m/s 733 mmHg 89%
01:00 +2°C° 0 mm 2 m/s 733 mmHg 89%
02:00 +2°C° 0 mm 2 m/s 733 mmHg 90%
03:00 +2°C° 0 mm 2 m/s 732 mmHg 91%
04:00 +3°C° 0 mm 1 m/s 732 mmHg 92%
05:00 +3°C° 0 mm 1 m/s 732 mmHg 91%
06:00 +3°C° 0 mm 1 m/s 731 mmHg 91%
07:00 +3°C° 0 mm 1 m/s 731 mmHg 91%
08:00 +2°C° 0 mm 2 m/s 731 mmHg 93%
09:00 +3°C° 0 mm 2 m/s 730 mmHg 96%
10:00 +3°C° 0 mm 2 m/s 730 mmHg 99%
11:00 +3°C° 0 mm 2 m/s 729 mmHg 99%
12:00 +4°C° 0 mm 2 m/s 729 mmHg 99%
13:00 +4°C° 0 mm 2 m/s 728 mmHg 99%
14:00 +4°C° 0 mm 2 m/s 728 mmHg 98%
15:00 +4°C° 0 mm 2 m/s 727 mmHg 97%
16:00 +4°C° 0 mm 2 m/s 727 mmHg 96%
17:00 +4°C° 0.3 mm 2 m/s 727 mmHg 96%
18:00 +4°C° 0.3 mm 2 m/s 726 mmHg 96%
19:00 +3°C° 0.3 mm 2 m/s 726 mmHg 95%
20:00 +3°C° 0.1 mm 2 m/s 726 mmHg 95%
21:00 +4°C° 0.1 mm 1 m/s 726 mmHg 94%
22:00 +4°C° 0.1 mm 1 m/s 726 mmHg 94%
23:00 +4°C° 0.3 mm 1 m/s 726 mmHg 94%
Voir plus

Nous avons besoin de votre consentement

Meteoprog et ses fournisseurs de services peuvent stocker et accéder à des données personnelles telles que des cookies, des identifiants d'appareils ou d'autres technologies similaires sur votre appareil et traiter ces données pour personnaliser le contenu et les publicités, ainsi que pour fournir des fonctionnalités de médias sociaux et analyser le trafic.

  • Stocker et/ou accéder à des informations sur votre appareil

    Des cookies, des identifiants d'appareils ou d'autres informations peuvent être stockés ou accessibles sur votre appareil aux fins indiquées ci-dessus.

  • Annonces et contenus personnalisés, mesure des annonces et des contenus, connaissance de l'audience et développement de produits

    Les annonces et le contenu peuvent être personnalisés en fonction d'un profil. D'autres données peuvent être ajoutées pour mieux personnaliser les annonces et le contenu. Les performances des publicités et du contenu peuvent être mesurées. Il est possible d'obtenir des informations sur le public qui a vu les publicités et le contenu. Ces données peuvent être utilisées pour développer ou améliorer l'expérience de l'utilisateur, les systèmes et les logiciels.

En cliquant sur "J'accepte", vous autorisez l'utilisation de cookies, des identifiants d'appareils, des balises web ou d'autres technologies similaires. Vos paramètres peuvent être modifiés dans le navigateur de votre appareil.

Dans certains cas, des intérêts légitimes peuvent être invoqués plutôt qu'un consentement. Vous pouvez en savoir plus à ce sujet dans notre Politique de confidentialité et de cookies.